Weather History for PFYU - April, 2013

Change the Weather History Date:

Wednesday, April 3, 2013

  Actual Average Record
Temperature  
Mean Temperature 10 °F -  
Max Temperature 21 °F 22 °F 42 °F (1998)
Min Temperature -2 °F 1 °F -25 °F (2003)
Degree Days  
Heating Degree Days 56    
Moisture  
Dew Point -9 °F    
Average Humidity 53    
Maximum Humidity 66    
Minimum Humidity 39    
Precipitation  
Precipitation 0.00 in - - ()
Sea Level Pressure  
Sea Level Pressure 30.50 in    
Wind  
Wind Speed 9 mph (NE)    
Max Wind Speed 16 mph    
Max Gust Speed 22 mph    
Visibility 10 miles    
Events      
Averages and records for this station are not official NWS values.
T = Trace of Precipitation, MM = Missing Value Source: NWS Daily Summary

Daily Weather History Graph

Daily Weather History Graph

Search for Another Location

Airport or City:

Trip Planner

Search our weather history database for the weather conditions in past years. The results will help you decide how hot, cold, wet, or windy it might be!

Date:

Astronomy

Apr. 03, 2013 Rise Set
Actual Time 6:43 AM AKDT 8:46 PM AKDT
Civil Twilight 5:47 AM AKDT 9:43 PM AKDT
Nautical Twilight 4:30 AM AKDT 11:01 PM AKDT
Astronomical Twilight 2:16 AM AKDT 1:11 AM AKDT
Moon 5:20 AM AKDT (4/3) 11:24 AM AKDT (4/3)
Length of Visible Light 15h 55m
Length of Day
14h 02m
Last Quarter, 43% of the Moon is Illuminated
Apr 3
Last Quarter
Apr 10
New
Apr 18
First Quarter
Apr 25
Full
May 2
Last Quarter

Hourly Weather History & Observations

Time (AKDT) Temp. Windchill Dew Point Humidity Pressure Visibility Wind Dir Wind Speed Gust Speed Precip Events Conditions
12:16 AM 5.0 °F -9.1 °F -5.8 °F 61% 30.40 in 10.0 mi NE 9.2 mph - N/A   Clear
12:36 AM 5.0 °F -9.1 °F -7.6 °F 56% 30.40 in 10.0 mi NE 9.2 mph - N/A   Clear
12:56 AM 3.2 °F -11.3 °F -7.6 °F 61% 30.41 in 10.0 mi NE 9.2 mph - N/A   Clear
1:16 AM 3.2 °F -11.3 °F -9.4 °F 56% 30.42 in 10.0 mi NE 9.2 mph - N/A   Clear
1:36 AM 1.4 °F -13.5 °F -9.4 °F 61% 30.42 in 10.0 mi NE 9.2 mph - N/A   Clear
1:56 AM 1.4 °F -14.5 °F -9.4 °F 61% 30.43 in 10.0 mi NE 10.4 mph - N/A   Clear
2:16 AM 1.4 °F -15.3 °F -9.4 °F 61% 30.43 in 10.0 mi NE 11.5 mph - N/A   Clear
2:36 AM 1.4 °F -14.5 °F -11.2 °F 56% 30.43 in 10.0 mi NE 10.4 mph - N/A   Clear
2:56 AM 1.4 °F -13.5 °F -11.2 °F 56% 30.44 in 10.0 mi NE 9.2 mph - N/A   Clear
3:16 AM -0.4 °F -14.7 °F -11.2 °F 60% 30.44 in 10.0 mi NE 8.1 mph - N/A   Clear
3:36 AM -0.4 °F -14.7 °F -11.2 °F 60% 30.45 in 10.0 mi NE 8.1 mph - N/A   Clear
3:56 AM -0.4 °F -13.4 °F -11.2 °F 60% 30.45 in 10.0 mi NE 6.9 mph - N/A   Clear
4:16 AM -0.4 °F -14.7 °F -11.2 °F 60% 30.45 in 10.0 mi NE 8.1 mph - N/A   Clear
4:36 AM -2.2 °F -15.6 °F -11.2 °F 66% 30.46 in 10.0 mi NE 6.9 mph - N/A   Clear
4:56 AM -0.4 °F -13.4 °F -13.0 °F 55% 30.46 in 10.0 mi NE 6.9 mph - N/A   Clear
5:16 AM -0.4 °F -13.4 °F -16.6 °F 46% 30.47 in 10.0 mi NE 6.9 mph - N/A   Clear
5:36 AM -0.4 °F -14.7 °F -11.2 °F 60% 30.47 in 10.0 mi NE 8.1 mph - N/A   Clear
5:56 AM -0.4 °F -15.7 °F -14.8 °F 51% 30.48 in 10.0 mi NE 9.2 mph - N/A   Clear
6:16 AM -0.4 °F -14.7 °F -13.0 °F 55% 30.48 in 10.0 mi NE 8.1 mph - N/A   Clear
6:36 AM -2.2 °F -15.6 °F -14.8 °F 55% 30.49 in 10.0 mi NE 6.9 mph - N/A   Clear
6:56 AM -2.2 °F -15.6 °F -14.8 °F 55% 30.49 in 10.0 mi NE 6.9 mph - N/A   Clear
7:16 AM -2.2 °F -15.6 °F -13.0 °F 60% 30.50 in 10.0 mi NE 6.9 mph - N/A   Clear
7:36 AM -2.2 °F -14.2 °F -16.6 °F 50% 30.50 in 10.0 mi ENE 5.8 mph - N/A   Clear
7:56 AM -2.2 °F -18.0 °F -14.8 °F 55% 30.51 in 10.0 mi NE 9.2 mph - N/A   Clear
8:16 AM -0.4 °F -14.7 °F -13.0 °F 55% 30.52 in 10.0 mi NE 8.1 mph - N/A   Clear
8:36 AM 1.4 °F -14.5 °F -11.2 °F 56% 30.52 in 10.0 mi NE 10.4 mph - N/A   Clear
8:56 AM 1.4 °F -14.5 °F -11.2 °F 56% 30.53 in 10.0 mi ENE 10.4 mph - N/A   Clear
9:16 AM 5.0 °F -9.1 °F -9.4 °F 52% 30.53 in 10.0 mi ENE 9.2 mph - N/A   Clear
9:36 AM 6.8 °F -8.6 °F -9.4 °F 48% 30.54 in 10.0 mi ENE 11.5 mph 16.1 mph N/A   Clear
9:56 AM 6.8 °F -7.8 °F -9.4 °F 48% 30.55 in 10.0 mi ENE 10.4 mph - N/A   Clear
10:16 AM - - - N/A% 30.55 in 10.0 mi North - - N/A   Unknown
10:36 AM 8.6 °F -5.5 °F -7.6 °F 48% 30.56 in 10.0 mi ENE 10.4 mph 18.4 mph N/A   Clear
10:56 AM 10.4 °F -4.1 °F -7.6 °F 44% 30.56 in 10.0 mi NE 11.5 mph 19.6 mph N/A   Clear
11:16 AM 12.2 °F -3.7 °F -4.0 °F 48% 30.56 in 10.0 mi ENE 15.0 mph 19.6 mph N/A   Clear
11:36 AM 12.2 °F -3.1 °F -5.8 °F 45% 30.57 in 10.0 mi ENE 13.8 mph 21.9 mph N/A   Clear
11:56 AM 14.0 °F 0.5 °F -2.2 °F 49% 30.57 in 10.0 mi ENE 11.5 mph - N/A   Clear
12:16 PM 15.8 °F 3.4 °F -2.2 °F 45% 30.58 in 10.0 mi ENE 10.4 mph 17.3 mph N/A   Clear
1:53 PM 17.6 °F 3.7 °F -2.2 °F 42% 30.60 in 10.0 mi NNE 13.8 mph 18.4 mph N/A   Clear
2:53 PM 19.4 °F 6.0 °F -2.2 °F 39% 30.61 in 10.0 mi NNE 13.8 mph 20.7 mph N/A   Clear
3:55 PM 19.4 °F 8.6 °F 1.4 °F 46% 30.61 in 10.0 mi NNE 9.2 mph - N/A   Clear
4:55 PM 21.2 °F 7.3 °F 1.4 °F 42% 30.61 in 10.0 mi NNE 16.1 mph 19.6 mph N/A   Clear
5:51 PM 21.2 °F 7.3 °F -0.4 °F 39% 30.61 in 10.0 mi NNE 16.1 mph - N/A   Clear
6:51 PM 19.4 °F 6.0 °F -0.4 °F 42% 30.61 in 10.0 mi NNE 13.8 mph 18.4 mph N/A   Clear